contact:dominique.lefevre@mio.osupytheas.fr, maurice.libes@osupytheas.fr, didier.mallarino@osupytheas.fr
Project:EMSO http://www.emso-fr.org/EMSO-France
Depth: 2436.0 m
Title:EMSO Ligure Ouest : Data MII capteur CSTAR
DateTime,Latitude,Longitude,Instrument_Serial,Reference_Counts,Signal_Counts,Corrected_Signal_raw_counts,Calculated_Beam_c_inverse_meters,Internal_thermistor_counts
DateTime,Latitude,Longitude,Instrument_Serial,Reference_Counts,Signal_Counts,Corrected_Signal_raw_counts,Calculated_Beam_c_inverse_meters,Internal_thermistor_counts
2023-03-04T00:00:04,42.805,6.029,CST-1368DR,4365,4798,11678,01.162,551
2023-03-04T00:03:06,42.805,6.029,CST-1368DR,4365,4797,11675,01.163,551
2023-03-04T00:06:07,42.805,6.029,CST-1368DR,4365,4795,11669,01.165,551
2023-03-04T00:09:09,42.805,6.029,CST-1368DR,4365,4797,11675,01.163,551
2023-03-04T00:12:10,42.805,6.029,CST-1368DR,4365,4798,11676,01.163,551
2023-03-04T00:15:12,42.805,6.029,CST-1368DR,4365,4794,11668,01.166,551
2023-03-04T00:18:14,42.805,6.029,CST-1368DR,4365,4797,11675,01.163,551
2023-03-04T00:21:15,42.805,6.029,CST-1368DR,4365,4796,11671,01.165,551
2023-03-04T00:24:17,42.805,6.029,CST-1368DR,4365,4791,11660,01.169,551
2023-03-04T00:27:18,42.805,6.029,CST-1368DR,4365,4795,11670,01.165,551
2023-03-04T00:30:20,42.805,6.029,CST-1368DR,4365,4794,11667,01.166,551
2023-03-04T00:33:21,42.805,6.029,CST-1368DR,4365,4800,11681,01.161,551
2023-03-04T00:36:23,42.805,6.029,CST-1368DR,4365,4794,11667,01.166,551
2023-03-04T00:39:25,42.805,6.029,CST-1368DR,4365,4795,11669,01.165,551
2023-03-04T00:42:26,42.805,6.029,CST-1368DR,4365,4794,11668,01.166,551
2023-03-04T00:45:28,42.805,6.029,CST-1368DR,4365,4795,11669,01.165,551
2023-03-04T00:48:29,42.805,6.029,CST-1368DR,4365,4795,11669,01.165,551
2023-03-04T00:51:31,42.805,6.029,CST-1368DR,4365,4794,11667,01.166,551
2023-03-04T00:54:32,42.805,6.029,CST-1368DR,4365,4796,11672,01.164,551
2023-03-04T00:57:34,42.805,6.029,CST-1368DR,4365,4793,11664,01.167,551
2023-03-04T01:00:36,42.805,6.029,CST-1368DR,4365,4794,11667,01.166,551
2023-03-04T01:03:37,42.805,6.029,CST-1368DR,4365,4794,11667,01.166,551
2023-03-04T01:06:39,42.805,6.029,CST-1368DR,4365,4794,11667,01.166,551
2023-03-04T01:09:40,42.805,6.029,CST-1368DR,4365,4795,11669,01.165,551
2023-03-04T01:12:42,42.805,6.029,CST-1368DR,4365,4795,11670,01.165,551
2023-03-04T01:15:43,42.805,6.029,CST-1368DR,4365,4796,11672,01.164,551
2023-03-04T01:18:45,42.805,6.029,CST-1368DR,4365,4796,11671,01.165,551
2023-03-04T01:21:47,42.805,6.029,CST-1368DR,4365,4796,11672,01.164,551
2023-03-04T01:24:48,42.805,6.029,CST-1368DR,4365,4795,11670,01.165,551
2023-03-04T01:27:50,42.805,6.029,CST-1368DR,4365,4796,11673,01.164,551
2023-03-04T01:30:51,42.805,6.029,CST-1368DR,4365,4794,11668,01.166,551
2023-03-04T01:33:53,42.805,6.029,CST-1368DR,4365,4794,11666,01.166,551
2023-03-04T01:36:55,42.805,6.029,CST-1368DR,4365,4793,11665,01.167,551
2023-03-04T01:39:56,42.805,6.029,CST-1368DR,4365,4796,11672,01.164,551
2023-03-04T01:42:58,42.805,6.029,CST-1368DR,4365,4793,11666,01.166,551
2023-03-04T01:45:59,42.805,6.029,CST-1368DR,4365,4796,11672,01.164,551
2023-03-04T01:49:01,42.805,6.029,CST-1368DR,4365,4796,11671,01.165,551
2023-03-04T01:52:02,42.805,6.029,CST-1368DR,4365,4787,11650,01.172,551
2023-03-04T01:55:04,42.805,6.029,CST-1368DR,4365,4802,11686,01.160,551
2023-03-04T01:58:06,42.805,6.029,CST-1368DR,4365,4799,11679,01.162,551
2023-03-04T02:01:07,42.805,6.029,CST-1368DR,4365,4796,11673,01.164,551
2023-03-04T02:04:09,42.805,6.029,CST-1368DR,4365,4795,11670,01.165,551
2023-03-04T02:07:10,42.805,6.029,CST-1368DR,4365,4792,11661,01.168,551
2023-03-04T02:10:12,42.805,6.029,CST-1368DR,4365,4796,11672,01.164,551
2023-03-04T02:13:13,42.805,6.029,CST-1368DR,4365,4796,11672,01.164,551
2023-03-04T02:16:15,42.805,6.029,CST-1368DR,4364,4777,11629,01.179,551
2023-03-04T02:19:17,42.805,6.029,CST-1368DR,4365,4797,11674,01.164,551
2023-03-04T02:22:18,42.805,6.029,CST-1368DR,4365,4795,11670,01.165,551
2023-03-04T02:25:20,42.805,6.029,CST-1368DR,4365,4794,11667,01.166,551
2023-03-04T02:28:21,42.805,6.029,CST-1368DR,4365,4793,11665,01.167,551
2023-03-04T02:31:23,42.805,6.029,CST-1368DR,4365,4790,11658,01.169,551
2023-03-04T02:34:25,42.805,6.029,CST-1368DR,4365,4793,11664,01.167,551
2023-03-04T02:37:26,42.805,6.029,CST-1368DR,4365,4793,11664,01.167,551
2023-03-04T02:40:28,42.805,6.029,CST-1368DR,4365,4793,11666,01.166,551
2023-03-04T02:43:29,42.805,6.029,CST-1368DR,4365,4792,11661,01.168,551
2023-03-04T02:46:31,42.805,6.029,CST-1368DR,4365,4795,11670,01.165,551
2023-03-04T02:49:32,42.805,6.029,CST-1368DR,4365,4794,11666,01.166,551
2023-03-04T02:52:34,42.805,6.029,CST-1368DR,4365,4793,11664,01.167,551
2023-03-04T02:55:36,42.805,6.029,CST-1368DR,4365,4795,11670,01.165,551
2023-03-04T02:58:37,42.805,6.029,CST-1368DR,4365,4796,11671,01.165,551
2023-03-04T03:01:39,42.805,6.029,CST-1368DR,4365,4789,11655,01.170,551
2023-03-04T03:04:40,42.805,6.029,CST-1368DR,4365,4795,11669,01.165,551
2023-03-04T03:07:42,42.805,6.029,CST-1368DR,4364,4792,11664,01.167,551
2023-03-04T03:10:44,42.805,6.029,CST-1368DR,4365,4792,11663,01.167,551
2023-03-04T03:13:45,42.805,6.029,CST-1368DR,4365,4795,11669,01.165,551
2023-03-04T03:16:47,42.805,6.029,CST-1368DR,4364,4793,11667,01.166,551
2023-03-04T03:19:48,42.805,6.029,CST-1368DR,4365,4795,11670,01.165,551
2023-03-04T03:22:50,42.805,6.029,CST-1368DR,4364,4795,11672,01.164,551
2023-03-04T03:25:51,42.805,6.029,CST-1368DR,4364,4794,11670,01.165,551
2023-03-04T03:28:53,42.805,6.029,CST-1368DR,4364,4793,11668,01.166,551
2023-03-04T03:31:55,42.805,6.029,CST-1368DR,4365,4793,11666,01.166,551
2023-03-04T03:34:56,42.805,6.029,CST-1368DR,4365,4795,11669,01.165,551
2023-03-04T03:37:58,42.805,6.029,CST-1368DR,4364,4794,11669,01.165,551
2023-03-04T03:40:59,42.805,6.029,CST-1368DR,4364,4802,11689,01.159,551
2023-03-04T03:44:01,42.805,6.029,CST-1368DR,4365,4796,11672,01.164,551
2023-03-04T03:47:02,42.805,6.029,CST-1368DR,4364,4798,11679,01.162,551
2023-03-04T03:50:04,42.805,6.029,CST-1368DR,4364,4794,11670,01.165,551
2023-03-04T03:53:06,42.805,6.029,CST-1368DR,4364,4796,11675,01.163,551
2023-03-04T03:56:07,42.805,6.029,CST-1368DR,4365,4798,11677,01.163,551
2023-03-04T03:59:09,42.805,6.029,CST-1368DR,4365,4794,11668,01.166,551
2023-03-04T04:02:10,42.805,6.029,CST-1368DR,4364,4798,11679,01.162,551
2023-03-04T04:05:12,42.805,6.029,CST-1368DR,4364,4798,11680,01.162,551
2023-03-04T04:08:13,42.805,6.029,CST-1368DR,4365,4799,11680,01.162,551
2023-03-04T04:11:15,42.805,6.029,CST-1368DR,4364,4799,11682,01.161,551
2023-03-04T04:14:17,42.805,6.029,CST-1368DR,4365,4798,11678,01.162,551
2023-03-04T04:17:18,42.805,6.029,CST-1368DR,4364,4797,11678,01.162,551
2023-03-04T04:20:20,42.805,6.029,CST-1368DR,4365,4800,11681,01.161,551
2023-03-04T04:23:21,42.805,6.029,CST-1368DR,4364,4794,11670,01.165,551
2023-03-04T04:26:23,42.805,6.029,CST-1368DR,4364,4790,11659,01.169,551
2023-03-04T04:29:25,42.805,6.029,CST-1368DR,4364,4797,11678,01.162,551
2023-03-04T04:32:26,42.805,6.029,CST-1368DR,4364,4798,11679,01.162,551
2023-03-04T04:35:28,42.805,6.029,CST-1368DR,4364,4798,11679,01.162,551
2023-03-04T04:38:29,42.805,6.029,CST-1368DR,4364,4796,11675,01.163,551
2023-03-04T04:41:31,42.805,6.029,CST-1368DR,4364,4797,11677,01.163,551
2023-03-04T04:44:32,42.805,6.029,CST-1368DR,4364,4800,11683,01.161,551
2023-03-04T04:47:34,42.805,6.029,CST-1368DR,4364,4798,11680,01.162,551
2023-03-04T04:50:36,42.805,6.029,CST-1368DR,4364,4798,11679,01.162,551
2023-03-04T04:53:37,42.805,6.029,CST-1368DR,4364,4797,11677,01.163,551
2023-03-04T04:56:39,42.805,6.029,CST-1368DR,4364,4801,11687,01.159,551
2023-03-04T04:59:40,42.805,6.029,CST-1368DR,4364,4800,11684,01.160,551
2023-03-04T05:02:42,42.805,6.029,CST-1368DR,4364,4801,11688,01.159,551
2023-03-04T05:05:43,42.805,6.029,CST-1368DR,4365,4799,11680,01.162,551
2023-03-04T05:08:45,42.805,6.029,CST-1368DR,4365,4805,11693,01.157,551
2023-03-04T05:11:47,42.805,6.029,CST-1368DR,4365,4803,11688,01.159,551
2023-03-04T05:14:48,42.805,6.029,CST-1368DR,4364,4800,11685,01.160,551
2023-03-04T05:17:50,42.805,6.029,CST-1368DR,4364,4795,11672,01.164,551
2023-03-04T05:20:51,42.805,6.029,CST-1368DR,4365,4803,11689,01.159,551
2023-03-04T05:23:53,42.805,6.029,CST-1368DR,4365,4802,11688,01.159,551
2023-03-04T05:26:55,42.805,6.029,CST-1368DR,4365,4806,11697,01.156,551
2023-03-04T05:29:56,42.805,6.029,CST-1368DR,4365,4804,11691,01.158,551
2023-03-04T05:32:58,42.805,6.029,CST-1368DR,4364,4802,11690,01.158,551
2023-03-04T05:35:59,42.805,6.029,CST-1368DR,4364,4802,11690,01.158,551
2023-03-04T05:39:01,42.805,6.029,CST-1368DR,4364,4805,11696,01.156,551
2023-03-04T05:42:02,42.805,6.029,CST-1368DR,4364,4801,11686,01.160,551
2023-03-04T05:45:04,42.805,6.029,CST-1368DR,4365,4801,11683,01.161,551
2023-03-04T05:48:06,42.805,6.029,CST-1368DR,4364,4802,11689,01.159,551
2023-03-04T05:51:07,42.805,6.029,CST-1368DR,4365,4806,11697,01.156,551
2023-03-04T05:54:09,42.805,6.029,CST-1368DR,4364,4801,11688,01.159,551
2023-03-04T05:57:10,42.805,6.029,CST-1368DR,4364,4803,11693,01.157,551
2023-03-04T06:00:12,42.805,6.029,CST-1368DR,4364,4806,11700,01.155,551
2023-03-04T06:03:13,42.805,6.029,CST-1368DR,4364,4804,11693,01.157,551
2023-03-04T06:06:15,42.805,6.029,CST-1368DR,4364,4805,11696,01.156,551
2023-03-04T06:09:17,42.805,6.029,CST-1368DR,4364,4802,11690,01.158,551
2023-03-04T06:12:18,42.805,6.029,CST-1368DR,4364,4804,11693,01.157,551
2023-03-04T06:15:20,42.805,6.029,CST-1368DR,4364,4806,11698,01.156,551
2023-03-04T06:18:21,42.805,6.029,CST-1368DR,4364,4803,11691,01.158,551
2023-03-04T06:21:23,42.805,6.029,CST-1368DR,4365,4802,11686,01.160,551
2023-03-04T06:24:24,42.805,6.029,CST-1368DR,4364,4803,11693,01.157,551
2023-03-04T06:27:26,42.805,6.029,CST-1368DR,4364,4802,11690,01.158,551
2023-03-04T06:30:28,42.805,6.029,CST-1368DR,4365,4810,11705,01.153,551
2023-03-04T06:33:29,42.805,6.029,CST-1368DR,4364,4801,11686,01.160,551
2023-03-04T06:36:31,42.805,6.029,CST-1368DR,4364,4800,11684,01.160,551
2023-03-04T06:39:32,42.805,6.029,CST-1368DR,4364,4803,11691,01.158,551
2023-03-04T06:42:34,42.805,6.029,CST-1368DR,4365,4801,11685,01.160,551
2023-03-04T06:45:36,42.805,6.029,CST-1368DR,4364,4804,11695,01.157,551
2023-03-04T06:48:37,42.805,6.029,CST-1368DR,4364,4807,11702,01.154,551
2023-03-04T06:51:39,42.805,6.029,CST-1368DR,4365,4804,11692,01.158,551
2023-03-04T06:54:40,42.805,6.029,CST-1368DR,4364,4800,11683,01.161,551
2023-03-04T06:57:42,42.805,6.029,CST-1368DR,4364,4799,11683,01.161,551
2023-03-04T07:00:43,42.805,6.029,CST-1368DR,4364,4802,11688,01.159,551
2023-03-04T07:03:45,42.805,6.029,CST-1368DR,4364,4799,11682,01.161,551
2023-03-04T07:06:47,42.805,6.029,CST-1368DR,4364,4801,11686,01.160,551
2023-03-04T07:09:48,42.805,6.029,CST-1368DR,4364,4802,11689,01.159,551
2023-03-04T07:12:50,42.805,6.029,CST-1368DR,4364,4801,11686,01.160,551
2023-03-04T07:15:51,42.805,6.029,CST-1368DR,4364,4801,11688,01.159,551
2023-03-04T07:18:53,42.805,6.029,CST-1368DR,4364,4800,11685,01.160,551
2023-03-04T07:21:54,42.805,6.029,CST-1368DR,4364,4801,11686,01.160,551
2023-03-04T07:24:56,42.805,6.029,CST-1368DR,4364,4801,11687,01.159,551
2023-03-04T07:27:58,42.805,6.029,CST-1368DR,4364,4798,11679,01.162,551
2023-03-04T07:30:59,42.805,6.029,CST-1368DR,4364,4799,11682,01.161,551
2023-03-04T07:34:01,42.805,6.029,CST-1368DR,4364,4801,11686,01.160,551
2023-03-04T07:37:02,42.805,6.029,CST-1368DR,4364,4800,11684,01.160,551
2023-03-04T07:40:04,42.805,6.029,CST-1368DR,4364,4807,11702,01.154,551
2023-03-04T07:43:05,42.805,6.029,CST-1368DR,4364,4801,11686,01.160,551
2023-03-04T07:46:07,42.805,6.029,CST-1368DR,4364,4809,11705,01.153,551
2023-03-04T07:49:09,42.805,6.029,CST-1368DR,4364,4800,11685,01.160,551
2023-03-04T07:52:10,42.805,6.029,CST-1368DR,4364,4798,11680,01.162,551
2023-03-04T07:55:12,42.805,6.029,CST-1368DR,4364,4802,11689,01.159,551
2023-03-04T07:58:13,42.805,6.029,CST-1368DR,4364,4800,11683,01.161,551
2023-03-04T08:01:15,42.805,6.029,CST-1368DR,4364,4800,11685,01.160,551
2023-03-04T08:04:17,42.805,6.029,CST-1368DR,4364,4801,11686,01.160,551
2023-03-04T08:07:18,42.805,6.029,CST-1368DR,4364,4801,11686,01.160,551
2023-03-04T08:10:20,42.805,6.029,CST-1368DR,4364,4780,11635,01.177,551
2023-03-04T08:13:21,42.805,6.029,CST-1368DR,4364,4798,11679,01.162,551
2023-03-04T08:16:23,42.805,6.029,CST-1368DR,4364,4800,11685,01.160,551
2023-03-04T08:19:24,42.805,6.029,CST-1368DR,4364,4800,11684,01.160,551
2023-03-04T08:22:26,42.805,6.029,CST-1368DR,4364,4800,11685,01.160,551
2023-03-04T08:25:28,42.805,6.029,CST-1368DR,4364,4800,11685,01.160,551
2023-03-04T08:28:29,42.805,6.029,CST-1368DR,4364,4801,11688,01.159,551
2023-03-04T08:31:31,42.805,6.029,CST-1368DR,4364,4803,11692,01.158,551
2023-03-04T08:34:32,42.805,6.029,CST-1368DR,4364,4803,11691,01.158,551
2023-03-04T08:37:34,42.805,6.029,CST-1368DR,4364,4803,11692,01.158,551
2023-03-04T08:40:35,42.805,6.029,CST-1368DR,4364,4803,11691,01.158,551
2023-03-04T08:43:37,42.805,6.029,CST-1368DR,4364,4804,11694,01.157,551
2023-03-04T08:46:39,42.805,6.029,CST-1368DR,4364,4804,11695,01.157,551
2023-03-04T08:49:40,42.805,6.029,CST-1368DR,4364,4804,11694,01.157,551
2023-03-04T08:52:42,42.805,6.029,CST-1368DR,4364,4802,11688,01.159,551
2023-03-04T08:55:43,42.805,6.029,CST-1368DR,4364,4813,11716,01.149,551
2023-03-04T08:58:45,42.805,6.029,CST-1368DR,4364,4802,11688,01.159,551
2023-03-04T09:01:46,42.805,6.029,CST-1368DR,4364,4801,11688,01.159,551
2023-03-04T09:04:48,42.805,6.029,CST-1368DR,4364,4804,11693,01.157,551
2023-03-04T09:07:50,42.805,6.029,CST-1368DR,4364,4802,11690,01.158,551
2023-03-04T09:10:51,42.805,6.029,CST-1368DR,4364,4802,11689,01.159,551
2023-03-04T09:13:53,42.805,6.029,CST-1368DR,4364,4797,11678,01.162,551
2023-03-04T09:16:54,42.805,6.029,CST-1368DR,4364,4801,11688,01.159,551
2023-03-04T09:19:56,42.805,6.029,CST-1368DR,4364,4801,11686,01.160,551
2023-03-04T09:22:58,42.805,6.029,CST-1368DR,4364,4802,11688,01.159,551
2023-03-04T09:25:59,42.805,6.029,CST-1368DR,4364,4802,11689,01.159,551
2023-03-04T09:29:01,42.805,6.029,CST-1368DR,4364,4800,11685,01.160,551
2023-03-04T09:32:02,42.805,6.029,CST-1368DR,4364,4803,11691,01.158,551
2023-03-04T09:35:04,42.805,6.029,CST-1368DR,4364,4801,11686,01.160,551
2023-03-04T09:38:05,42.805,6.029,CST-1368DR,4364,4799,11683,01.161,551
2023-03-04T09:41:07,42.805,6.029,CST-1368DR,4364,4803,11693,01.157,551
2023-03-04T09:44:09,42.805,6.029,CST-1368DR,4364,4800,11685,01.160,551
2023-03-04T09:47:10,42.805,6.029,CST-1368DR,4364,4802,11689,01.159,551
2023-03-04T09:50:12,42.805,6.029,CST-1368DR,4364,4803,11691,01.158,551
2023-03-04T09:53:13,42.805,6.029,CST-1368DR,4364,4801,11688,01.159,551
2023-03-04T09:56:15,42.805,6.029,CST-1368DR,4364,4796,11675,01.163,551
2023-03-04T09:59:16,42.805,6.029,CST-1368DR,4364,4802,11690,01.158,551
2023-03-04T10:02:18,42.805,6.029,CST-1368DR,4364,4799,11683,01.161,551
2023-03-04T10:05:20,42.805,6.029,CST-1368DR,4364,4808,11705,01.153,551
2023-03-04T10:08:21,42.805,6.029,CST-1368DR,4364,4803,11691,01.158,551
2023-03-04T10:11:23,42.805,6.029,CST-1368DR,4363,4802,11691,01.158,551
2023-03-04T10:14:24,42.805,6.029,CST-1368DR,4364,4802,11690,01.158,551
2023-03-04T10:17:26,42.805,6.029,CST-1368DR,4363,4800,11687,01.159,551
2023-03-04T10:20:28,42.805,6.029,CST-1368DR,4363,4800,11688,01.159,551
2023-03-04T10:23:29,42.805,6.029,CST-1368DR,4363,4803,11694,01.157,551
2023-03-04T10:26:31,42.805,6.029,CST-1368DR,4363,4802,11693,01.157,551
2023-03-04T10:29:32,42.805,6.029,CST-1368DR,4363,4802,11691,01.158,551
2023-03-04T10:32:34,42.805,6.029,CST-1368DR,4363,4802,11691,01.158,551
2023-03-04T10:35:35,42.805,6.029,CST-1368DR,4363,4801,11689,01.159,551
2023-03-04T10:38:37,42.805,6.029,CST-1368DR,4363,4804,11696,01.156,551
2023-03-04T10:41:39,42.805,6.029,CST-1368DR,4363,4804,11697,01.156,551
2023-03-04T10:44:40,42.805,6.029,CST-1368DR,4363,4804,11696,01.156,551
2023-03-04T10:47:42,42.805,6.029,CST-1368DR,4364,4806,11698,01.156,551
2023-03-04T10:50:43,42.805,6.029,CST-1368DR,4364,4797,11676,01.163,551
2023-03-04T10:53:45,42.805,6.029,CST-1368DR,4364,4805,11696,01.156,551
2023-03-04T10:56:46,42.805,6.029,CST-1368DR,4364,4803,11691,01.158,551
2023-03-04T10:59:48,42.805,6.029,CST-1368DR,4364,4804,11694,01.157,551
2023-03-04T11:02:50,42.805,6.029,CST-1368DR,4364,4806,11699,01.155,551
2023-03-04T11:05:51,42.805,6.029,CST-1368DR,4364,4804,11694,01.157,551
2023-03-04T11:08:53,42.805,6.029,CST-1368DR,4364,4810,11710,01.151,551
2023-03-04T11:11:54,42.805,6.029,CST-1368DR,4364,4807,11702,01.154,551
2023-03-04T11:14:56,42.805,6.029,CST-1368DR,4364,4814,11719,01.148,551
2023-03-04T11:17:58,42.805,6.029,CST-1368DR,4364,4805,11696,01.156,551
2023-03-04T11:20:59,42.805,6.029,CST-1368DR,4364,4806,11699,01.155,551
2023-03-04T11:24:01,42.805,6.029,CST-1368DR,4364,4804,11694,01.157,551
2023-03-04T11:27:02,42.805,6.029,CST-1368DR,4364,4796,11674,01.164,551
2023-03-04T11:30:04,42.805,6.029,CST-1368DR,4364,4802,11689,01.159,551
2023-03-04T11:33:05,42.805,6.029,CST-1368DR,4364,4801,11688,01.159,551
2023-03-04T11:36:07,42.805,6.029,CST-1368DR,4364,4804,11693,01.157,551
2023-03-04T11:39:09,42.805,6.029,CST-1368DR,4364,4804,11694,01.157,551
2023-03-04T11:42:10,42.805,6.029,CST-1368DR,4364,4807,11700,01.155,551
2023-03-04T11:45:12,42.805,6.029,CST-1368DR,4364,4808,11703,01.154,551
2023-03-04T11:48:13,42.805,6.029,CST-1368DR,4364,4807,11702,01.154,551
2023-03-04T11:51:15,42.805,6.029,CST-1368DR,4364,4808,11703,01.154,551
2023-03-04T11:54:16,42.805,6.029,CST-1368DR,4364,4806,11700,01.155,551
2023-03-04T11:57:18,42.805,6.029,CST-1368DR,4364,4806,11698,01.156,551
2023-03-04T12:00:20,42.805,6.029,CST-1368DR,4364,4804,11693,01.157,551
2023-03-04T12:03:21,42.805,6.029,CST-1368DR,4364,4802,11689,01.159,551
2023-03-04T12:06:23,42.805,6.029,CST-1368DR,4364,4802,11690,01.158,551
2023-03-04T12:09:24,42.805,6.029,CST-1368DR,4364,4800,11685,01.160,551
2023-03-04T12:12:26,42.805,6.029,CST-1368DR,4364,4793,11666,01.166,551
2023-03-04T12:15:28,42.805,6.029,CST-1368DR,4364,4801,11686,01.160,551
2023-03-04T12:18:29,42.805,6.029,CST-1368DR,4364,4798,11680,01.162,551
2023-03-04T12:21:31,42.805,6.029,CST-1368DR,4364,4797,11677,01.163,551
2023-03-04T12:24:32,42.805,6.029,CST-1368DR,4364,4797,11678,01.162,551
2023-03-04T12:27:34,42.805,6.029,CST-1368DR,4364,4794,11669,01.165,551
2023-03-04T12:30:35,42.805,6.029,CST-1368DR,4364,4800,11685,01.160,551
2023-03-04T12:33:37,42.805,6.029,CST-1368DR,4364,4797,11677,01.163,551
2023-03-04T12:36:39,42.805,6.029,CST-1368DR,4364,4795,11671,01.165,551
2023-03-04T12:39:40,42.805,6.029,CST-1368DR,4364,4797,11676,01.163,551
2023-03-04T12:42:42,42.805,6.029,CST-1368DR,4364,4796,11674,01.164,551
2023-03-04T12:45:43,42.805,6.029,CST-1368DR,4364,4797,11677,01.163,551
2023-03-04T12:48:45,42.805,6.029,CST-1368DR,4364,4796,11674,01.164,551
2023-03-04T12:51:46,42.805,6.029,CST-1368DR,4364,4798,11679,01.162,551
2023-03-04T12:54:48,42.805,6.029,CST-1368DR,4364,4808,11704,01.153,551
2023-03-04T12:57:50,42.805,6.029,CST-1368DR,4364,4793,11668,01.166,551
2023-03-04T13:00:51,42.805,6.029,CST-1368DR,4364,4797,11677,01.163,551
2023-03-04T13:03:53,42.805,6.029,CST-1368DR,4364,4797,11677,01.163,551
2023-03-04T13:06:54,42.805,6.029,CST-1368DR,4364,4794,11669,01.165,551
2023-03-04T13:09:56,42.805,6.029,CST-1368DR,4364,4800,11683,01.161,551
2023-03-04T13:12:58,42.805,6.029,CST-1368DR,4364,4799,11682,01.161,551
2023-03-04T13:15:59,42.805,6.029,CST-1368DR,4364,4797,11678,01.162,551
2023-03-04T13:19:01,42.805,6.029,CST-1368DR,4364,4798,11679,01.162,551
2023-03-04T13:22:02,42.805,6.029,CST-1368DR,4364,4796,11674,01.164,551
2023-03-04T13:25:04,42.805,6.029,CST-1368DR,4364,4798,11680,01.162,551
2023-03-04T13:28:05,42.805,6.029,CST-1368DR,4364,4795,11672,01.164,551
2023-03-04T13:31:07,42.805,6.029,CST-1368DR,4364,4797,11678,01.162,551
2023-03-04T13:34:09,42.805,6.029,CST-1368DR,4364,4799,11682,01.161,551
2023-03-04T13:37:10,42.805,6.029,CST-1368DR,4364,4798,11680,01.162,551
2023-03-04T13:40:12,42.805,6.029,CST-1368DR,4364,4800,11683,01.161,551
2023-03-04T13:43:13,42.805,6.029,CST-1368DR,4364,4797,11677,01.163,551
2023-03-04T13:46:15,42.805,6.029,CST-1368DR,4364,4797,11677,01.163,551
2023-03-04T13:49:16,42.805,6.029,CST-1368DR,4364,4798,11679,01.162,551
2023-03-04T13:52:18,42.805,6.029,CST-1368DR,4364,4797,11677,01.163,551
2023-03-04T13:55:20,42.805,6.029,CST-1368DR,4364,4799,11683,01.161,551
2023-03-04T13:58:21,42.805,6.029,CST-1368DR,4364,4798,11680,01.162,551
2023-03-04T14:01:23,42.805,6.029,CST-1368DR,4364,4797,11677,01.163,551
2023-03-04T14:04:24,42.805,6.029,CST-1368DR,4364,4797,11676,01.163,551
2023-03-04T14:07:26,42.805,6.029,CST-1368DR,4364,4796,11675,01.163,551
2023-03-04T14:10:28,42.805,6.029,CST-1368DR,4364,4796,11675,01.163,551
2023-03-04T14:13:29,42.805,6.029,CST-1368DR,4364,4795,11671,01.165,551
2023-03-04T14:16:31,42.805,6.029,CST-1368DR,4364,4794,11669,01.165,551
2023-03-04T14:19:32,42.805,6.029,CST-1368DR,4364,4796,11674,01.164,551
2023-03-04T14:22:34,42.805,6.029,CST-1368DR,4364,4796,11674,01.164,551
2023-03-04T14:25:35,42.805,6.029,CST-1368DR,4364,4793,11668,01.166,551
2023-03-04T14:28:37,42.805,6.029,CST-1368DR,4364,4794,11670,01.165,551
2023-03-04T14:31:39,42.805,6.029,CST-1368DR,4364,4793,11666,01.166,551
2023-03-04T14:34:40,42.805,6.029,CST-1368DR,4364,4794,11671,01.165,551
2023-03-04T14:37:42,42.805,6.029,CST-1368DR,4364,4794,11671,01.165,551
2023-03-04T14:40:43,42.805,6.029,CST-1368DR,4364,4794,11671,01.165,551
2023-03-04T14:43:45,42.805,6.029,CST-1368DR,4364,4793,11668,01.166,551
2023-03-04T14:46:46,42.805,6.029,CST-1368DR,4364,4799,11682,01.161,551
2023-03-04T14:49:48,42.805,6.029,CST-1368DR,4364,4794,11669,01.165,551
2023-03-04T14:52:50,42.805,6.029,CST-1368DR,4364,4794,11671,01.165,551
2023-03-04T14:55:51,42.805,6.029,CST-1368DR,4364,4791,11663,01.167,551
2023-03-04T14:58:53,42.805,6.029,CST-1368DR,4364,4793,11667,01.166,551
2023-03-04T15:01:54,42.805,6.029,CST-1368DR,4364,4791,11663,01.167,551
2023-03-04T15:04:56,42.805,6.029,CST-1368DR,4364,4789,11658,01.169,551
2023-03-04T15:07:58,42.805,6.029,CST-1368DR,4364,4792,11664,01.167,551
2023-03-04T15:10:59,42.805,6.029,CST-1368DR,4364,4793,11668,01.166,551
2023-03-04T15:14:01,42.805,6.029,CST-1368DR,4364,4793,11666,01.166,551
2023-03-04T15:17:02,42.805,6.029,CST-1368DR,4364,4793,11668,01.166,551
2023-03-04T15:20:04,42.805,6.029,CST-1368DR,4364,4790,11660,01.169,551
2023-03-04T15:23:05,42.805,6.029,CST-1368DR,4364,4790,11660,01.169,551
2023-03-04T15:26:07,42.805,6.029,CST-1368DR,4364,4792,11664,01.167,551
2023-03-04T15:29:09,42.805,6.029,CST-1368DR,4364,4792,11664,01.167,551
2023-03-04T15:32:10,42.805,6.029,CST-1368DR,4364,4789,11658,01.169,551
2023-03-04T15:35:12,42.805,6.029,CST-1368DR,4364,4792,11666,01.166,551
2023-03-04T15:38:13,42.805,6.029,CST-1368DR,4364,4792,11664,01.167,551
2023-03-04T15:41:15,42.805,6.029,CST-1368DR,4364,4791,11663,01.167,551
2023-03-04T15:44:16,42.805,6.029,CST-1368DR,4364,4791,11663,01.167,551
2023-03-04T15:47:18,42.805,6.029,CST-1368DR,4364,4791,11663,01.167,551
2023-03-04T15:50:20,42.805,6.029,CST-1368DR,4364,4792,11664,01.167,551
2023-03-04T15:53:21,42.805,6.029,CST-1368DR,4364,4790,11661,01.168,551
2023-03-04T15:56:23,42.805,6.029,CST-1368DR,4364,4791,11663,01.167,551
2023-03-04T15:59:24,42.805,6.029,CST-1368DR,4364,4793,11666,01.166,551
2023-03-04T16:02:26,42.805,6.029,CST-1368DR,4364,4793,11667,01.166,551
2023-03-04T16:05:28,42.805,6.029,CST-1368DR,4364,4793,11668,01.166,551
2023-03-04T16:08:29,42.805,6.029,CST-1368DR,4364,4793,11668,01.166,551
2023-03-04T16:11:31,42.805,6.029,CST-1368DR,4364,4794,11669,01.165,551
2023-03-04T16:14:32,42.805,6.029,CST-1368DR,4364,4794,11669,01.165,551
2023-03-04T16:17:34,42.805,6.029,CST-1368DR,4364,4793,11666,01.166,551
2023-03-04T16:20:35,42.805,6.029,CST-1368DR,4364,4791,11661,01.168,551
2023-03-04T16:23:37,42.805,6.029,CST-1368DR,4364,4790,11660,01.169,551
2023-03-04T16:26:39,42.805,6.029,CST-1368DR,4364,4793,11667,01.166,551
2023-03-04T16:29:40,42.805,6.029,CST-1368DR,4364,4793,11668,01.166,551
2023-03-04T16:32:42,42.805,6.029,CST-1368DR,4364,4793,11667,01.166,551
2023-03-04T16:35:43,42.805,6.029,CST-1368DR,4364,4790,11661,01.168,551